SQ2CDE-4 Weather Reports


time (UTC)temp
F
wind
direction
speed
knots
gust
knots
rain 1hr
in
rain 24hr
in
rain mn
in
humidity
%
barometer
mb
20260507002559 43 350 7.0 0.0 0.00 0.00 0.00 93 1009.0
20260507001426 43 350 7.0 0.0 0.00 0.00 0.00 93 1009.0
20260507000247 43 350 8.7 0.0 0.00 0.00 0.00 93 1009.0
20260506235110 43 350 8.7 0.0 0.00 0.00 0.00 93 1009.0
20260506233933 43 350 8.7 0.0 0.00 0.00 0.00 93 1009.0
20260506232559 43 10 8.7 0.0 0.00 0.00 0.00 93 1009.0
20260506231420 43 10 8.7 0.0 0.00 0.00 0.00 93 1009.0
20260506230245 43 10 7.0 0.0 0.00 0.00 0.00 100 1009.0
20260506225106 43 10 7.0 0.0 0.00 0.00 0.00 100 1009.0
20260506223749 43 10 7.0 0.0 0.00 0.00 0.00 100 1009.0
20260506222610 43 10 7.0 0.0 0.00 0.00 0.00 93 1009.0
20260506221427 43 10 7.0 0.0 0.00 0.00 0.00 93 1009.0
20260506220250 43 10 7.0 0.0 0.00 0.00 0.00 93 1009.0
20260506215055 43 10 7.0 0.0 0.00 0.00 0.00 93 1009.0
20260506212224 43 20 7.0 0.0 0.00 0.00 0.00 93 1009.0
20260506211041 43 20 7.0 0.0 0.00 0.00 0.00 93 1009.0
20260506205904 43 10 8.7 0.0 0.00 0.00 0.00 93 1008.0
20260506204528 43 10 8.7 0.0 0.00 0.00 0.00 93 1008.0
20260506203355 43 20 8.7 0.0 0.00 0.00 0.00 100 1008.0
20260506202218 43 20 8.7 0.0 0.00 0.00 0.00 100 1008.0
20260506200903 43 20 8.7 0.0 0.00 0.00 0.00 100 1008.0
20260506195730 43 20 10.4 0.0 0.00 0.00 0.00 100 1008.0
20260506194553 43 20 10.4 0.0 0.00 0.00 0.00 100 1008.0
20260506193222 45 20 10.4 0.0 0.00 0.00 0.00 93 1008.0
20260506192040 45 20 10.4 0.0 0.00 0.00 0.00 93 1008.0
20260506190856 45 20 10.4 0.0 0.00 0.00 0.00 93 1008.0
20260506185201 45 20 10.4 0.0 0.00 0.00 0.00 93 1008.0
20260506184019 45 20 10.4 0.0 0.00 0.00 0.00 93 1008.0
20260506182836 45 20 10.4 0.0 0.00 0.00 0.00 93 1008.0
20260506181653 45 20 10.4 0.0 0.00 0.00 0.00 93 1008.0
20260506180508 45 360 10.4 0.0 0.00 0.00 0.00 93 1007.0
20260506175329 45 360 10.4 0.0 0.00 0.00 0.00 93 1007.0
20260506174148 45 360 10.4 0.0 0.00 0.00 0.00 93 1007.0
20260506173001 45 10 10.4 0.0 0.00 0.00 0.00 93 1007.0
20260506171826 45 10 10.4 0.0 0.00 0.00 0.00 93 1007.0
20260506170653 45 10 10.4 0.0 0.00 0.00 0.00 93 1007.0
20260506165348 45 10 10.4 0.0 0.00 0.00 0.00 93 1007.0
20260506164157 45 10 10.4 0.0 0.00 0.00 0.00 93 1007.0
20260506162849 45 10 8.7 0.0 0.00 0.00 0.00 93 1007.0
20260506160857 45 10 8.7 0.0 0.00 0.00 0.00 93 1007.0
20260506155705 45 20 8.7 0.0 0.00 0.00 0.00 93 1007.0
20260506154530 45 20 8.7 0.0 0.00 0.00 0.00 93 1007.0
20260506153400 45 360 10.4 0.0 0.00 0.00 0.00 93 1007.0
20260506152038 45 360 10.4 0.0 0.00 0.00 0.00 93 1007.0
20260506150901 45 360 10.4 0.0 0.00 0.00 0.00 93 1007.0
20260506145723 45 20 8.7 0.0 0.00 0.00 0.00 87 1008.0
20260506144532 45 20 8.7 0.0 0.00 0.00 0.00 87 1008.0
20260506143355 45 20 8.7 0.0 0.00 0.00 0.00 93 1008.0
20260506142016 45 20 8.7 0.0 0.00 0.00 0.00 93 1008.0
20260506140841 45 20 8.7 0.0 0.00 0.00 0.00 93 1008.0
20260506135702 45 20 10.4 0.0 0.00 0.00 0.00 87 1007.0
20260506134028 45 20 10.4 0.0 0.00 0.00 0.00 87 1007.0
20260506132723 45 20 12.2 0.0 0.00 0.00 0.00 87 1007.0
20260506131552 45 20 12.2 0.0 0.00 0.00 0.00 87 1007.0
20260506130232 45 20 13.9 0.0 0.00 0.00 0.00 87 1008.0
20260506125032 45 20 13.9 0.0 0.00 0.00 0.00 87 1008.0
20260506123901 45 20 13.9 0.0 0.00 0.00 0.00 87 1008.0
20260506122401 46 20 12.2 0.0 0.00 0.00 0.00 81 1007.0
20260506121042 46 20 12.2 0.0 0.00 0.00 0.00 81 1007.0
20260506115859 46 20 10.4 0.0 0.00 0.00 0.00 87 1008.0
20260506114717 46 20 10.4 0.0 0.00 0.00 0.00 87 1008.0
20260506113402 46 20 10.4 0.0 0.00 0.00 0.00 87 1007.0
20260506112201 46 20 10.4 0.0 0.00 0.00 0.00 87 1007.0
20260506110840 46 20 10.4 0.0 0.00 0.00 0.00 87 1007.0
20260506105701 46 20 8.7 0.0 0.00 0.00 0.00 87 1007.0
20260506104713 46 20 8.7 0.0 0.00 0.00 0.00 87 1007.0
20260506101445 48 40 12.2 0.0 0.00 0.00 0.00 81 1007.0
20260506100308 46 50 10.4 0.0 0.00 0.00 0.00 87 1007.0
20260506095059 46 50 10.4 0.0 0.00 0.00 0.00 87 1007.0
20260506093927 46 50 10.4 0.0 0.00 0.00 0.00 87 1007.0
20260506092752 46 40 10.4 0.0 0.00 0.00 0.00 87 1007.0
20260506091615 46 40 10.4 0.0 0.00 0.00 0.00 87 1007.0
20260506090422 48 40 12.2 0.0 0.00 0.00 0.00 87 1007.0
20260506085248 48 40 12.2 0.0 0.00 0.00 0.00 87 1007.0
20260506084114 48 40 12.2 0.0 0.00 0.00 0.00 87 1007.0
20260506082935 48 50 10.4 0.0 0.00 0.00 0.00 87 1007.0
20260506081454 48 50 10.4 0.0 0.00 0.00 0.00 87 1007.0
20260506081040 48 50 10.4 0.0 0.00 0.00 0.00 87 1007.0
20260506080902 48 50 10.4 0.0 0.00 0.00 0.00 87 1007.0
20260506080804 48 50 10.4 0.0 0.00 0.00 0.00 87 1007.0
20260506072937 48 20 8.7 0.0 0.00 0.00 0.00 87 1008.0
20260506072413 48 20 8.7 0.0 0.00 0.00 0.00 87 1008.0
20260506071109 48 20 7.0 0.0 0.00 0.00 0.00 93 1008.0
20260506062022 48 30 7.0 0.0 0.00 0.00 0.00 93 1008.0
20260506061014 48 30 7.0 0.0 0.00 0.00 0.00 93 1008.0